Location: Bushrod
(6.3500°N, 10.7833°W)
Time: 11:47:16
(UTC+00:00)

Ariane H10+ - Pass Details

Date: 17 September 2019
Orbit: 367 x 34445 km, 7.4° (Epoch: 18 October)

Event Time Altitude Azimuth Distance (km) Brightness Sun altitude
Rises 18:52:14 0° 262° (W) 11,019 10.1 -3.4°
Reaches altitude 10° 19:06:02 10° 251° (WSW) 5,739 7.8 -6.8°
Maximum altitude 19:15:11 22° 203° (SSW) 2,068 4.5 -9.1°
Drops below altitude 10° 19:18:31 10° 148° (SSE) 1,939 3.8 -9.9°
Enters shadow 19:19:19 - 137° (SE) 2,138 3.9 -10.1°
